Regional Weather Roundup
Issued by NWS

Home | Current Version | Previous Version | Graphics & Text | Print | Product List | Glossary On
Versions: 1 2 3 4 5 6 7 8 9 10 11 12 13 14 15 16 17 18 19 20 21 22 23 24 25 26 27 28 29 30 31 32 33 34 35 36 37 38 39 40 41 42 43 44 45 46 47 48 49 50
000
ASUS43 KMPX 212001
RWRMN
WEATHER ROUNDUP FOR MINNESOTA
NATIONAL WEATHER SERVICE TWIN CITIES/CHANHASSEN MN
300 PM CDT MON AUG 21 2017


NOTE: "FAIR" INDICATES FEW OR NO CLOUDS BELOW 12,000 FEET WITH NO
SIGNIFICANT WEATHER AND/OR OBSTRUCTIONS TO VISIBILITY. N/A MEANS
CURRENT SKY AND/OR WEATHER CONDITIONS ARE NOT AVAILABLE.

MNZ060>063-068>070-212100-
   Twin Cities Metro

CITY           SKY/WX    TMP DP  RH WIND       PRES   REMARKS
TWIN CITIES    RAIN      73  66  78 S22G28    29.93S
ST PAUL        RAIN      72  69  90 S22G28    29.91F FOG
CRYSTAL        LGT RAIN  72  64  76 SE15G24   29.82F
BLAINE         CLOUDY    72  66  83 SE12      29.88F
LAKEVILLE      TSTM      70  70 100 CALM      29.99R
EDEN PRAIRIE   RAIN      72  68  87 SE30      29.86F FOG
SOUTH ST PAUL  RAIN      73  68  86 S14       29.96R
LAKE ELMO      PTSUNNY   72  68  88 S12       29.94R
$$
MNZ001>005-007-008-013>017-022>024-027-028-212100-
   Northwest Minnesota

CITY           SKY/WX    TMP DP  RH WIND       PRES   REMARKS
BEMIDJI        CLOUDY    68  52  56 SE5       29.91R
HALLOCK        CLOUDY    66  55  68 W6        29.89S
ROSEAU         RAIN      64  57  77 E5        29.91F
WARROAD        LGT RAIN  64  61  88 CALM      29.92F
CROOKSTON      MOSUNNY   73  52  46 W8        29.90S
FOSSTON        CLOUDY    72  52  49 S6        29.92R
DETROIT LAKES  CLOUDY    70  59  68 SW6       29.90S
MOORHEAD       CLOUDY    72  61  68 SW9       29.88F
PARK RAPIDS    CLOUDY    71  57  61 S7        29.89S
MAHNOMEN       MOCLDY    70  57  62 SW6       29.90R
$$
MNZ006-009>011-018-025>026-212100-
   North Central Minnesota

CITY           SKY/WX    TMP DP  RH WIND       PRES   REMARKS
BAUDETTE       CLOUDY    71  58  63 NE7       29.92F
FLAG ISLAND    CLOUDY    64  54  68 CALM      29.91F
INTL FALLS     LGT RAIN  65  60  84 SE3       29.92F
WASKISH        LGT RAIN  63  59  88 N5        29.93R
BIG FORK       CLOUDY    66  55  68 E3        29.92R
LONGVILLE      CLOUDY    72  57  60 SE3       29.89F
GRAND RAPIDS   CLOUDY    68  56  65 VRB5      29.93R
CRANE LAKE     CLOUDY    64  57  77 CALM      29.92F
ORR            CLOUDY    66  54  63 CALM      29.90S
COOK           LGT RAIN  64  55  72 CALM      29.92F
WALKER         MOCLDY    66  55  66 NE3       29.89F
$$
MNZ012-019>021-037-212100-
   Northeast Minnesota

CITY           SKY/WX    TMP DP  RH WIND       PRES   REMARKS
DULUTH         CLOUDY    64  60  87 SE15      29.92F
ELY            CLOUDY    63  55  77 E5        29.91F
HIBBING        CLOUDY    64  56  75 E7        29.91F
EVELETH        CLOUDY    63  56  77 CALM      29.92F
DULUTH HARBOR  CLOUDY    68  61  77 E10       29.92F
TWO HARBORS    PTSUNNY   68  61  77 NE5       29.91F
SILVER BAY     CLOUDY    66  61  82 CALM      29.92F
GRAND MARAIS     N/A     66  58  75 CALM      29.93F
G MARAIS ARPRT CLOUDY    66  46  48 CALM      29.98F
$$
MNZ029>031-032-039>041-046>048-054>057-064-212100-
   West Central Minnesota

CITY           SKY/WX    TMP DP  RH WIND       PRES   REMARKS
FERGUS FALLS   CLOUDY    70  63  78 SW7       29.88F
WHEATON        CLOUDY    68  63  83 S3        29.90F
MORRIS         CLOUDY    66  63  88 SW7       29.90S
ALEXANDRIA     CLOUDY    68  64  87 SW12      29.93R
ELBOW LAKE     CLOUDY    67  64  90 SW8       29.91S FOG
WADENA         CLOUDY    70  61  73 S7        29.89S
GLENWOOD       CLOUDY    66  64  94 SW9       29.92R
APPLETON       CLOUDY    66  63  88 W6        29.90R
BENSON         CLOUDY    68  63  83 NW5       29.92F
ORTONVILLE     CLOUDY    66  61  82 MISG      29.90R
MADISON        CLOUDY    70  70 100 CALM      29.90R
WILLMAR        PTSUNNY   66  66 100 W5        29.94R
$$
MNZ033>034-036-042>043-049>051-058-059-212100-
   Central Minnesota

CITY           SKY/WX    TMP DP  RH WIND       PRES   REMARKS
ST CLOUD       CLOUDY    67  65  93 NE6       29.89S
SAUK CENTRE    MOCLDY    68  63  83 SE6       29.92R
PAYNESVILLE    CLOUDY    66  64  94 CALM      29.93R
AITKIN           N/A     73  55  53 MISG      29.88S
PINE RIVER     CLOUDY    70  57  64 S7        29.92F
BRAINERD       CLOUDY    72  58  61 SE9       29.88F
STAPLES        CLOUDY    72  57  60 S5        29.89S
LONG PRAIRIE   FAIR      68  63  83 E7        29.92R
LITTLE FALLS   CLOUDY    72  61  68 SE7       29.90R
LITCHFIELD     CLOUDY    72  70  94 W9G22     29.94R
BUFFALO        CLOUDY    70  64  81 SE7       29.85F
MAPLE LAKE     CLOUDY    71  68  90 CALM      29.88R
HUTCHINSON     CLOUDY    70  68  95 S12G17    29.91R
$$
MNZ037-044-045-052-053-212100-
   East Central Minnesota

CITY           SKY/WX    TMP DP  RH WIND       PRES   REMARKS
PRINCETON      CLOUDY    70  66  88 NE3       29.88F
MORA           CLOUDY    70  63  78 SE5       29.91F
CAMBRIDGE      PTSUNNY   72  66  83 E5        29.89F
RUSH CITY      CLOUDY    71  65  81 CALM      29.89F
MOOSE LAKE     PTSUNNY   70  59  68 CALM      29.89F
HINCKLEY       FAIR      72  63  73 E7        29.90F
CLOQUET        CLOUDY    66  55  68 E8        29.92S
MCGREGOR       CLOUDY    72  57  60 SE9       29.90S
$$
MNZ071>073-080-081-089-090-097-098-212100-
   Southwest Minnesota

CITY           SKY/WX    TMP DP  RH WIND       PRES   REMARKS
MONTEVIDEO     CLOUDY    64  64 100 CALM      29.91S
GRANITE FALLS  CLOUDY    68  66  93 CALM      29.92R
CANBY          CLOUDY    67  64  91 CALM      29.92R
MARSHALL       LGT RAIN  67  64  90 S14       29.90S
REDWOOD FALLS  CLOUDY    67  64  90 S7        29.93R
OLIVIA         CLOUDY    68  64  88 CALM      29.92R
PIPESTONE      TSTM      66  64  94 S7        29.96F
WINDOM         TSTM      68  64  88 S9        29.98S
WORTHINGTON    TSTM      65  64  97 SE5       30.00S FOG
JACKSON        TSTM      64  63  94 CALM      30.00S
TRACY          RAIN      67  66  96 S15       29.95R
SLAYTON        RAIN      64  60  87 S7        29.99R
$$
MNZ065>067-074>077-082>085-091>093-212100-
   South Central Minnesota

CITY           SKY/WX    TMP DP  RH WIND       PRES   REMARKS
MANKATO        RAIN      67  66  97 S12       29.94F
NEW ULM        CLOUDY    66  64  94 S8        29.93R
ST JAMES       LGT RAIN  70  66  88 SE15      29.93F
FAIRMONT       LGT RAIN  67  66  97 VRB5      29.97F
GLENCOE        CLOUDY    69  70 100 S8        29.87F
FARIBAULT      TSTM      66  64  94 S9        30.02R
OWATONNA       TSTM      68  66  94 SW8       30.04R
WASECA         TSTM      66  64  94 CALM      30.04S
ALBERT LEA     RAIN      72  66  83 CALM      30.01R
$$
MNZ078>079-086>088-094>096-212100-
   Southeast Minnesota

CITY           SKY/WX    TMP DP  RH WIND       PRES   REMARKS
ROCHESTER      CLOUDY    71  67  87 SW7       30.00R
RED WING       CLOUDY    75  66  73 W3        29.97R THUNDER
STANTON        TSTM      74  69  86 CALM      29.98R
DODGE CENTER   TSTM      72  64  78 W7        30.01R
WINONA         CLOUDY    77  64  65 SW7       29.95R
AUSTIN         CLOUDY    72  66  83 CALM      30.01R
PRESTON        CLOUDY    71  64  78 SW3       29.99S
$$
ABBREVIATIONS USED IN REMARKS
   TC - TEMPERATURES IN CELSIUS
  WCI - WIND CHILL INDEX
   HX - HEAT INDEX
  VSB - VISIBILITY
$$



USA.gov is the U.S. government's official web portal to all federal, state and local government web resources and services.